Van, Turkey

7:29 AM +03 on January 24, 2017 (GMT +0300)
Van

Weather History for LTCI - June, 2013

Change the Weather History Date:

Wednesday, June 26, 2013

  Actual Average Record
Temperature  
Mean Temperature 64 °F -  
Max Temperature 74 °F 81 °F 84 °F (2002)
Min Temperature 53 °F 56 °F 48 °F (2003)
Degree Days  
Heating Degree Days 2    
Growing Degree Days 14 (Base 50)    
Moisture  
Dew Point 52 °F    
Average Humidity 56    
Maximum Humidity 72    
Minimum Humidity 41    
Precipitation  
Precipitation 0.00 in 0.01 in - ()
Sea Level Pressure  
Sea Level Pressure 29.98 in    
Wind  
Wind Speed 4 mph ()    
Max Wind Speed 9 mph    
Max Gust Speed -    
Visibility 6.5 miles    
Events      
Averages and records for this station are not official NWS values.
T = Trace of Precipitation, MM = Missing Value Source: Averaged Metar Reports

Daily Weather History Graph

Daily Weather History Graph

Search for Another Location

Airport or City:

Trip Planner

Search our weather history database for the weather conditions in past years. The results will help you decide how hot, cold, wet, or windy it might be!

Date:

Astronomy

Jun. 26, 2013 Rise Set
Actual Time 4:44 AM EEST 7:34 PM EEST
Civil Twilight 4:12 AM EEST 8:06 PM EEST
Nautical Twilight 3:32 AM EEST 8:46 PM EEST
Astronomical Twilight 2:47 AM EEST 9:31 PM EEST
Moon 9:47 PM EEST (6/26) 8:07 AM EEST (6/26)
Length of Visible Light 15h 53m
Length of Day
14h 50m
Waning Gibbous, 88% of the Moon is Illuminated
Jun 26
Waning Gibbous
Jun 30
Last Quarter
Jul 8
New
Jul 16
First Quarter
Jul 22
Full

Hourly Weather History & Observations

Time (EEST) Temp. Dew Point Humidity Pressure Visibility Wind Dir Wind Speed Gust Speed Precip Events Conditions
12:50 AM 60.8 °F 46.4 °F 59% 29.95 in - Variable 2.3 mph - N/A   Clear
1:50 AM 59.0 °F 46.4 °F 63% 29.95 in - ESE 3.5 mph - N/A   Clear
2:50 AM 57.2 °F 46.4 °F 67% 29.95 in - Variable 2.3 mph - N/A   Clear
3:00 AM 56 °F 46 °F 61%  in 12 mi NE 2.3 mph - -   Scattered Clouds
3:50 AM 55.4 °F 46.4 °F 72% 29.95 in - ENE 4.6 mph - N/A   Clear
4:50 AM 55.4 °F 46.4 °F 72% 29.95 in - ESE 3.5 mph - N/A   Clear
5:50 AM 60.8 °F 48.2 °F 63% 29.98 in - Variable 1.2 mph - N/A   Clear
6:50 AM 68.0 °F 50.0 °F 52% 29.98 in - Variable 2.3 mph - N/A   Clear
7:50 AM 71.6 °F 50.0 °F 46% 29.98 in - NW 3.5 mph - N/A   Clear
8:50 AM 69.8 °F 53.6 °F 56% 29.98 in 6.2 mi WNW 9.2 mph - N/A   Partly Cloudy
9:00 AM 71 °F 53 °F 43%  in 6 mi WNW 9.2 mph - -   Scattered Clouds
9:50 AM 71.6 °F 57.2 °F 60% 29.98 in 6.2 mi West 9.2 mph - N/A   Partly Cloudy
10:50 AM 71.6 °F 57.2 °F 60% 29.98 in 6.2 mi West 8.1 mph - N/A   Partly Cloudy
11:50 AM 71.6 °F 57.2 °F 60% 30.01 in 6.2 mi West 9.2 mph - N/A   Partly Cloudy
12:50 PM 73.4 °F 57.2 °F 57% 29.98 in 6.2 mi West 8.1 mph - N/A   Partly Cloudy
1:50 PM 73.4 °F 57.2 °F 57% 29.98 in 6.2 mi WSW 8.1 mph - N/A   Partly Cloudy
2:50 PM 73.4 °F 55.4 °F 53% 29.98 in 6.2 mi WSW 9.2 mph - N/A   Partly Cloudy
3:00 PM 74 °F 56 °F 42%  in 6 mi WSW 9.2 mph - -   Scattered Clouds
3:50 PM 73.4 °F 59.0 °F 61% 29.98 in 6.2 mi WSW 6.9 mph - N/A   Partly Cloudy
4:50 PM 73.4 °F 55.4 °F 53% 29.98 in 6.2 mi SSW 6.9 mph - N/A   Partly Cloudy
5:50 PM 75.2 °F 50.0 °F 41% 29.98 in 6.2 mi WSW 6.9 mph - N/A   Partly Cloudy
6:50 PM 73.4 °F 51.8 °F 47% 29.98 in 6.2 mi WSW 4.6 mph - N/A   Partly Cloudy
7:50 PM 68.0 °F 55.4 °F 64% 29.98 in 6.2 mi NE 3.5 mph - N/A   Partly Cloudy
8:50 PM 66.2 °F 51.8 °F 60% 30.01 in - Variable 2.3 mph - N/A   Clear
9:00 PM 66 °F 49 °F 43%  in 6 mi NE 2.3 mph - -  
9:50 PM 64.4 °F 46.4 °F 52% 30.01 in - East 3.5 mph - N/A   Clear
10:50 PM 69.8 °F 48.2 °F 46% 30.01 in - West 3.5 mph - N/A   Clear
11:50 PM 64.4 °F 48.2 °F 56% 30.01 in - East 6.9 mph - N/A   Clear